www.pogodaiklimat.ru

Погода и климат >> Архив погоды >> Россия >> Красноярский край >> Остров Диксон


АРХИВ ПОГОДЫ на Острове Диксон

Время (UTC), дата Ветер
(напр.,м/с)
 
Видим.   Явления Облачность Т
(С)
Тd
(С)
f
(%)
Тe
(С)
Тes
(С)
Комфортность P
(гПа)
Po
(гПа)
Тmin
(С)
Tmax
(С)
R
(мм)
R24
(мм)
S
(см)
12 11.06 ЮЗ 4 4000 м слаб. ливневой снег 9/8 150 м
[Cb cap Ci fib]
+0.1 -1.0 92 -5 -5 по сезону 999.7 993.9 +0.7 0.4
15 11.06 ЮЗ 7
{10}
4000 м слаб. ливневой снег {метель} 9/8 120 м
[Cb cap Ci fib]
-0.9 -1.5 96 -8 -8 по сезону 999.6 993.8
18 11.06 ЮЗ 6 20 км {ливн. осадки} 9/6 360 м
[Sc Ac trans Ci fib]
-1.5 -2.2 95 -9 -9 прохладно 999.7 993.9
21 11.06 Ю 6 4000 м слаб. ливневой снег 9/8 120 м
[Cb cap Ci fib]
-1.2 -1.6 97 -8 -8 по сезону 999.5 993.7
00 12.06 Ю 5
{10}
2000 м в посл. час туман {ливн. осадки} 10/10 150 м
[St]
-2.0 -2.3 98 -9 -9 прохладно 999.8 994.0 -3.3 0.0 51
03 12.06 Ю 8-10
{10}
4000 м слаб. ливневой снег [диам. гололёда 1 мм] 10/10 210 м
[Cb cap]
-1.3 -1.8 96 -9 -9 прохладно 999.7 993.9
06 12.06 Ю 7
{11}
20 км {ливн. осадки} [диам. гололёда 1 мм] 10/8 360 м
[Sc Ac trans Ci fib]
-1.1 -2.4 91 -9 -8 прохладно 1000.5 994.7
09 12.06 Ю 5 20 км 6/4 300 м
[Sc Ac trans Ci fib]
-0.2 -2.0 88 -6 -4 по сезону 1001.3 995.5
12 12.06 Ю 5 20 км 6/4 300 м
[Sc Ac trans Ci fib]
+0.3 -1.4 88 -6 -5 по сезону 1001.5 995.7 +0.4 0.0
15 12.06 Ю 4 20 км 6/3 300 м
[Sc Ac trans Ci fib]
-0.5 -1.8 91 -6 -6 по сезону 1001.5 995.7
18 12.06 ЮВ 3 20 км 9/0
[Ac trans Ci fib]
-0.8 -2.3 90 -6 -6 по сезону 1001.5 995.7
21 12.06 В 3 20 км 6/0
[Ac trans Ci fib]
-2.0 -3.6 89 -7 -7 по сезону 1001.3 995.4
00 13.06 В 3 20 км 4/3 300 м
[Sc Ac trans Ci fib]
+0.1 -2.1 85 -5 -3 по сезону 1000.8 995.0 -2.4 50
03 13.06 В 5 20 км 9/6 450 м
[Sc Ci fib]
+2.0 -0.6 83 -4 -2 по сезону 1000.3 994.6
06 13.06 В 6 20 км 6/0
[Ci fib]
+3.3 -1.1 73 -2 +1 по сезону 999.6 993.9
09 13.06 СВ 8 20 км 9/0
[Ac trans Ci fib]
+2.1 0.0 86 -5 -4 по сезону 998.8 993.1
12 13.06 СВ 8 20 км 9/0
[Ac trans Ci fib]
+1.6 -0.3 87 -5 -5 по сезону 997.9 992.2 +3.5
15 13.06 СВ 8-11
{11}
20 км 9/0
[Ac trans Ci]
+1.4 +0.1 91 -6 -6 по сезону 997.1 991.3
18 13.06 С 9-11
{11}
20 км 10/0
[Ac As]
+1.6 +0.4 92 -6 -6 по сезону 995.9 990.2
21 13.06 С 12-15
{15}
20 км 10/6 180 м
[St Ac As]
+0.6 -0.4 93 -8 -8 по сезону 994.5 988.7
00 14.06 С 11-14
{15}
20 км 10/0
[Ac As]
+0.1 -2.0 86 -8 -8 по сезону 993.1 987.3 +0.1 49
03 14.06 С 11-14
{14}
20 км 10/8 360 м
[Sc Ac und]
-0.7 -2.1 90 -10 -10 прохладно 991.8 986.0 -1.0
06 14.06 С 12-15
{15}
20 км 10/8 400 м
[Sc Ac und]
-0.6 -2.0 90 -10 -10 холодно 991.1 985.3
09 14.06 С 12-15
{15}
20 км 10/10 400 м
[Sc]
-0.4 -1.8 90 -9 -9 прохладно 990.5 984.8
12 14.06 С 12-15
{15}
4000 м слаб. ливневой снег 10/10 300 м
[Cb cap]
-0.7 -1.8 92 -10 -10 холодно 989.9 984.2 +0.1 0.0
15 14.06 С 11-15
{16}
2000 м слаб. ливневой снег {метель} 10/10 180 м
[Cb cap]
-1.0 -1.2 99 -10 -10 прохладно 989.0 983.3
18 14.06 С 10-13
{15}
2000 м слаб. ливневой снег {метель} 10/10 150 м
[Cb cap]
-0.9 -1.2 98 -10 -10 прохладно 987.9 982.2
21 14.06 С 9-11
{13}
2000 м слаб. ливневой снег {метель} 10/10 150 м
[Cb cap]
-1.1 -1.2 99 -10 -10 прохладно 986.9 981.2
00 15.06 С 7
{11}
4000 м слаб. ливневой снег {метель} 10/10 150 м
[Cb cap]
-1.1 -1.3 99 -9 -9 прохладно 986.6 980.9 -1.1 4 51
03 15.06 С 5 4000 м слаб. ливневой снег 10/10 180 м
[Cb cap]
-1.0 -1.7 95 -8 -8 прохладно 986.0 980.3 -1.2
06 15.06 С 4 4000 м слаб. ливневой снег 10/10 150 м
[Cb cap]
-0.8 -1.4 96 -7 -7 прохладно 986.9 981.2
09 15.06 СЗ 5 4000 м слаб. ливневой снег 10/10 180 м
[Cb cap]
-0.8 -1.4 96 -7 -7 прохладно 988.6 982.9
12 15.06 З 3 4000 м слаб. ливневой снег 10/10 150 м
[Cb cap]
-0.8 -1.5 95 -6 -6 по сезону 991.2 985.4 -0.4 2
15 15.06 ЮЗ 5 4000 м слаб. ливневой снег 10/10 180 м
[Cb cap]
-0.6 -1.0 97 -7 -7 по сезону 993.0 987.2
18 15.06 ЮЗ 6 20 км {ливн. осадки} 10/10 180 м
[St]
-0.6 -1.3 95 -8 -8 прохладно 995.0 989.2
21 15.06 Ю 7
{11}
20 км 10/8 210 м
[St Ac und]
-0.3 -0.6 98 -8 -8 прохладно 996.0 990.2
00 16.06 Ю 10-13
{13}
500 м туман ?/? +0.1 +0.1 100 -8 -8 прохладно 997.1 991.3 -1.0 0.0 51
03 16.06 Ю 11-14
{14}
4000 м слаб. ливневой снег {туман} 10/10 120 м
[Cb cap]
+0.4 +0.1 98 -8 -8 прохладно 997.7 991.9
06 16.06 Ю 9-12
{14}
20 км {ливн. осадки, туман} 10/10 120 м
[St]
+0.9 +0.5 97 -7 -7 прохладно 998.5 992.7
09 16.06 Ю 8-12
{13}
20 км {ливн. осадки} 10/8 150 м
[St Ac und]
+1.7 +1.0 95 -5 -5 по сезону 999.5 993.8
12 16.06 Ю 7-11
{12}
20 км {ливн. осадки} 10/8 300 м
[Sc Ac und]
+2.0 +1.3 95 -5 -5 по сезону 1000.3 994.6 +2.0 0.1
15 16.06 Ю 7-10
{11}
4000 м ливневой дождь 10/10 180 м
[Cb cap]
+2.5 +1.9 96 -4 -4 по сезону 999.7 994.0
18 16.06 Ю 7-10
{11}
2000 м дымка {ливн. осадки} 10/10 90 м
[St]
+1.1 +1.0 99 -6 -6 по сезону 999.8 994.0
21 16.06 Ю 6
{11}
1000 м дымка 10/10 90 м
[St]
+1.3 +1.2 99 -5 -5 по сезону 1000.0 994.2
00 17.06 Ю 6 4000 м дымка 10/10 120 м
[St]
+1.9 +1.8 99 -4 -4 по сезону 1000.1 994.4 +1.1 2 49
03 17.06 ЮВ 6 20 км 9/5 180 м
[St Ac trans]
+2.6 +1.6 93 -3 -3 по сезону 999.9 994.2
06 17.06 ЮВ 9-12
{12}
20 км 6/4 300 м
[Sc Ac trans]
+5.2 +2.0 80 -1 -0 по сезону 999.3 993.6
09 17.06 ЮВ 9-12
{12}
20 км 4/0
[Ac trans Ci fib]
+5.6 +2.2 79 -0 0 по сезону 999.3 993.6
12 17.06 ЮВ 7
{12}
20 км 9/0
[Ci sp]
+5.1 +2.3 82 -0 +1 по сезону 999.1 993.4 +6.0
15 17.06 ЮВ 5 20 км 9/5 450 м
[Sc Ac trans Ci fib]
+3.7 +1.1 83 -1 -1 по сезону 998.5 992.8
18 17.06 ЮВ 6
{11}
20 км {ливн. осадки} 9/6 400 м
[Sc Ac trans]
+3.5 +1.2 85 -2 -2 по сезону 997.4 991.7
21 17.06 Ю 5
{10}
20 км {ливн. осадки} 10/10 270 м
[St]
+3.2 +1.2 87 -2 -2 по сезону 997.3 991.6
00 18.06 Ю 3 1000 м дымка {ливн. осадки} 10/10 120 м
[St]
+2.3 +2.1 99 -2 -2 по сезону 998.0 992.3 +2.3 0.0 41
03 18.06 Ю 3 1000 м дымка {туман} 10/8 90 м
[St Ac trans Ci fib]
+2.0 +1.7 98 -3 -2 по сезону 998.3 992.6 +2.0
06 18.06 Ю 3 2000 м дымка {туман} 10/10 180 м
[St]
+3.8 +3.3 97 -0 -0 по сезону 998.7 993.0

 

Местоположение метеостанции Остров Диксон (Красноярский край, Россия): широта 73.52 долгота 80.40 высота над уровнем моря 56 м.

В архиве по умолчанию представлена погода на Острове Диксон за последнюю неделю. Архивные данные за месяц целиком и за предыдущие месяцы, начиная с января 2011 года, Вы можете получить, выбрав интересующий диапазон дат из раскрывающегося списка и нажав кнопку "Ввод!".


*Определитесь, кто Вы:
робот инопланетянин человек

Внимание! Время в таблицах - всемирное. Для получения местного времени необходимо прибавить поправку, которая равна 7 ч.

Смотрите также архив погоды в соседних городах и на ближайших метеорологических станциях:

Погода в Сопочной Карге (Красноярский край, Россия) (199 км)
Погода на Островах Известий ЦИК (Красноярский край, Россия) (280 км)
Погода в Гыде (Ямало-Ненецкий АО, Россия) (301 км)
Погода на Мысе Стерлегова (Красноярский край, Россия) (329 км)
Погода в Имени Попова (Ямало-Ненецкий АО, Россия) (329 км)
Погода в Тамбее (Ямало-Ненецкий АО, Россия) (365 км)
Погода в Карауле (Красноярский край, Россия) (394 км)
Погода в Крестах Таймырских (Красноярский край, Россия) (437 км)
Погода на Острове Уединения (Красноярский край, Россия) (446 км)
Погода в Сеяхе (Ямало-Ненецкий АО, Россия) (461 км)

Пояснения к столбцам:

Ветер - указаны скорость ветра в м/с - средняя за 10 мин, порывы в срок и между сроками (в фигурных скобках) и направление, откуда дует ветер: С - северный, СВ - северо-восточный, В - восточный, ЮВ - юго-восточный, Ю - южный, ЮЗ - юго-западный, З - западный, СЗ - северо-западный.
Видимость - горизонтальная дальность видимости в метрах или километрах. При видимости от 1 до 10 км при отсутствии осадков обычно наблюдается дымка, при ухудшении видимости до 1 км и менее - туман. В сухую погоду видимость может ухудшаться дымом, пылью или мглою.
Явления - указаны атмосферные явления, наблюдавшиеся в срок или в последний час перед сроком; фигурными скобками обозначены явления, наблюдавшиеся между сроками (за 1-3 часа до срока); квадратными скобками обозначены град или гололедные отложения с указанием их диаметра в мм.
Облачность - указаны через наклонную черту общая и нижняя облачность в баллах и высота нижней границы облаков в метрах; квадратными скобками обозначены формы облаков: Ci - перистые, Cs - перисто-слоистые, Cc - перисто-кучевые, Ac - высококучевые, As - высокослоистые, Sc - слоисто-кучевые, Ns - слоисто-дождевые, Cu - кучевые, Cb - кучево-дождевые. Подробнее классификацию облаков см. в Атласе облаков (PDF).
T - Температура воздуха - температура, измеренная на высоте 2 м над землей.
Td - Температура точки росы - температура, при понижении до которой содержащийся в воздухе водяной пар достигнет насыщения.
f - Относительная влажность воздуха - влажноcть воздуха, измеренная на высоте 2 м над землей.
Te - Эффективная температура - температура, которую ощущает одетый по сезону человек в тени. Характеристика душности погоды. При расчете учитывается влияние влажности воздуха и скорости ветра на теплоощущения человека.
Tes - Эффективная температура на солнце - температура, которую ощущает человек, с поправкой на солнечный нагрев. Характеристика знойности погоды. Зависит от высоты солнца над горизонтом, облачности и скорости ветра. Ночью, в пасмурную погоду, а также при ветре 12 м/с и более поправка равна нулю.
P - Атмосферное давление - приведенное к уровню моря атмосферное давление.
Po - Атмосферное давление - измеренное на уровне метеостанции атмосферное давление.
Tmin - Минимальная температура - минимум температуры воздуха на высоте 2 м над землей.
Tmax - Максимальная температура - максимум температуры воздуха на высоте 2 м над землей.
R - Количество осадков - Количество выпавших осадков за период времени, мм. При наведении курсора мыши на число - период времени, за который выпало указанное количество осадков.
R24 - Количество осадков - Количество выпавших осадков за 24 часа, мм.
S - Снежный покров - Высота снежного покрова, см. При наведении курсора мыши на число - состояние снежного покрова и степень покрытия местности в баллах.